JST821 YSSY-YBBN

Flight info

Callsign JST821
Flight time 1h 15m
Altitude 35000
Route KEVIN7 OLSEM Y193 BANDA H252 BN DCT
Aircraft A320/M-SDE3FGHIRWY/LB1

Departure

Time 2026-05-05 08:40
Airport Sydney Kingsford Smith International Airport (YSSY)

Arrival

Time 2026-05-05 09:56
Airport Brisbane International Airport (YBBN)
Time Latitude Longitude Altitude Speed Heading
2026-05-05 07:50 -33.93512 151.17673 30 ft 0 kts 97°
2026-05-05 08:27 -33.93510 151.17654 30 ft 3 kts 97°
2026-05-05 08:27 -33.93507 151.17633 30 ft 3 kts 97°
2026-05-05 08:27 -33.93505 151.17612 30 ft 3 kts 82°
2026-05-05 08:27 -33.93501 151.17591 28 ft 3 kts 159°
2026-05-05 08:28 -33.93497 151.17589 28 ft 0 kts 167°
2026-05-05 08:31 -33.93498 151.17589 28 ft 1 kts 167°
2026-05-05 08:31 -33.93515 151.17594 28 ft 6 kts 167°
2026-05-05 08:31 -33.93564 151.17606 28 ft 9 kts 168°
2026-05-05 08:32 -33.93631 151.17625 28 ft 11 kts 156°
2026-05-05 08:32 -33.93701 151.17673 29 ft 15 kts 155°
2026-05-05 08:32 -33.93750 151.17688 22 ft 14 kts 167°
2026-05-05 08:33 -33.93755 151.17690 21 ft 0 kts 167°
2026-05-05 08:33 -33.93786 151.17698 20 ft 14 kts 167°
2026-05-05 08:34 -33.93873 151.17758 20 ft 14 kts 136°
2026-05-05 08:34 -33.93943 151.17790 22 ft 9 kts 165°
2026-05-05 08:34 -33.94022 151.17813 23 ft 17 kts 167°
2026-05-05 08:34 -33.94155 151.17846 24 ft 20 kts 168°
2026-05-05 08:35 -33.94296 151.17881 25 ft 21 kts 167°
2026-05-05 08:35 -33.94442 151.17913 26 ft 22 kts 188°
2026-05-05 08:35 -33.94558 151.17892 25 ft 18 kts 167°
2026-05-05 08:35 -33.94681 151.17925 23 ft 20 kts 168°
2026-05-05 08:36 -33.94828 151.17961 20 ft 23 kts 168°
2026-05-05 08:36 -33.94985 151.18003 24 ft 22 kts 167°
2026-05-05 08:36 -33.95063 151.18023 28 ft 11 kts 167°
2026-05-05 08:36 -33.95103 151.18096 27 ft 13 kts 87°
2026-05-05 08:37 -33.95083 151.18216 24 ft 16 kts 78°
2026-05-05 08:37 -33.95057 151.18360 26 ft 18 kts 77°
2026-05-05 08:37 -33.95029 151.18517 27 ft 20 kts 78°
2026-05-05 08:37 -33.95001 151.18677 25 ft 15 kts 78°
2026-05-05 08:38 -33.94994 151.18719 24 ft 0 kts 78°
2026-05-05 08:38 -33.94991 151.18732 24 ft 3 kts 78°
2026-05-05 08:39 -33.94982 151.18793 24 ft 12 kts 87°
2026-05-05 08:39 -33.95061 151.18858 23 ft 20 kts 166°
2026-05-05 08:39 -33.95300 151.18921 20 ft 63 kts 168°
2026-05-05 08:39 -33.95936 151.19086 29 ft 121 kts 168°
2026-05-05 08:40 -33.96905 151.19340 172 ft 152 kts 167°
2026-05-05 08:40 -33.97920 151.19641 752 ft 150 kts 157°
2026-05-05 08:40 -33.98696 151.20479 1248 ft 154 kts 126°
2026-05-05 08:40 -33.99262 151.21579 1746 ft 155 kts 126°
2026-05-05 08:41 -33.99874 151.22752 1975 ft 178 kts 127°
2026-05-05 08:41 -34.00585 151.24098 2221 ft 201 kts 128°
2026-05-05 08:41 -34.01598 151.25328 2577 ft 221 kts 143°
2026-05-05 08:41 -34.02862 151.26557 2995 ft 244 kts 143°
2026-05-05 08:42 -34.04216 151.27874 3747 ft 253 kts 143°
2026-05-05 08:42 -34.05597 151.29223 4624 ft 258 kts 143°
2026-05-05 08:42 -34.07009 151.30606 5476 ft 264 kts 143°
2026-05-05 08:42 -34.08458 151.32025 6263 ft 272 kts 143°
2026-05-05 08:43 -34.09950 151.33484 7006 ft 280 kts 143°
2026-05-05 08:43 -34.11291 151.35218 7777 ft 288 kts 121°
2026-05-05 08:43 -34.11850 151.37553 8518 ft 298 kts 91°
2026-05-05 08:43 -34.11373 151.39983 9265 ft 302 kts 59°
2026-05-05 08:44 -34.10084 151.41996 9858 ft 307 kts 46°
2026-05-05 08:44 -34.08659 151.43900 10066 ft 306 kts 45°
2026-05-05 08:44 -34.07106 151.45675 10148 ft 312 kts 35°
2026-05-05 08:44 -34.05243 151.47061 10164 ft 315 kts 22°
2026-05-05 08:45 -34.03125 151.47983 10274 ft 334 kts 11°
2026-05-05 08:45 -34.00825 151.48711 10651 ft 348 kts 12°
2026-05-05 08:45 -33.98466 151.49477 11271 ft 354 kts 13°
2026-05-05 08:45 -33.96074 151.50265 11921 ft 358 kts 13°
2026-05-05 08:46 -33.93694 151.51055 12596 ft 361 kts 13°
2026-05-05 08:46 -33.91249 151.51869 13245 ft 366 kts 13°
2026-05-05 08:46 -33.88779 151.52686 13888 ft 371 kts 13°
2026-05-05 08:46 -33.86279 151.53508 14475 ft 374 kts 13°
2026-05-05 08:47 -33.83760 151.54332 15091 ft 377 kts 13°
2026-05-05 08:47 -33.81216 151.55162 15708 ft 379 kts 13°
2026-05-05 08:47 -33.78666 151.55990 16313 ft 381 kts 13°
2026-05-05 08:47 -33.76099 151.56823 16920 ft 383 kts 13°
2026-05-05 08:48 -33.73515 151.57665 17544 ft 385 kts 13°
2026-05-05 08:48 -33.70916 151.58512 18167 ft 388 kts 13°
2026-05-05 08:48 -33.68301 151.59363 18745 ft 391 kts 13°
2026-05-05 08:48 -33.65691 151.60303 19300 ft 394 kts 19°
2026-05-05 08:49 -33.63205 151.61748 19867 ft 400 kts 29°
2026-05-05 08:49 -33.60868 151.63586 20444 ft 403 kts 31°
2026-05-05 08:49 -33.58517 151.65449 20984 ft 406 kts 30°
2026-05-05 08:49 -33.56182 151.67288 21513 ft 409 kts 30°
2026-05-05 08:50 -33.53790 151.69162 22011 ft 412 kts 30°
2026-05-05 08:50 -33.51374 151.71040 22501 ft 415 kts 27°
2026-05-05 08:50 -33.48809 151.72598 22980 ft 413 kts 18°
2026-05-05 08:50 -33.46079 151.73656 23457 ft 412 kts 11°
2026-05-05 08:51 -33.43300 151.74554 23899 ft 415 kts 11°
2026-05-05 08:51 -33.40506 151.75454 24321 ft 416 kts 10°
2026-05-05 08:51 -33.37703 151.76357 24750 ft 418 kts 10°
2026-05-05 08:51 -33.34894 151.77268 25175 ft 419 kts 10°
2026-05-05 08:52 -33.32080 151.78180 25575 ft 420 kts
2026-05-05 08:52 -33.29257 151.79096 25985 ft 420 kts
2026-05-05 08:52 -33.26427 151.80010 26388 ft 421 kts
2026-05-05 08:52 -33.23591 151.80921 26788 ft 422 kts
2026-05-05 08:53 -33.20750 151.81833 27183 ft 423 kts
2026-05-05 08:53 -33.17901 151.82749 27584 ft 425 kts
2026-05-05 08:53 -33.15043 151.83669 27980 ft 426 kts
2026-05-05 08:53 -33.12178 151.84591 28352 ft 427 kts
2026-05-05 08:54 -33.09345 151.85500 28728 ft 428 kts
2026-05-05 08:54 -33.06467 151.86423 29103 ft 429 kts
2026-05-05 08:54 -33.03579 151.87355 29468 ft 430 kts
2026-05-05 08:54 -33.00683 151.88287 29843 ft 431 kts
2026-05-05 08:55 -32.97795 151.89217 30346 ft 429 kts
2026-05-05 08:55 -32.94922 151.90141 30795 ft 426 kts
2026-05-05 08:55 -32.92067 151.91057 31211 ft 425 kts
2026-05-05 08:55 -32.89210 151.91971 31589 ft 423 kts
2026-05-05 08:56 -32.86367 151.92880 32030 ft 421 kts
2026-05-05 08:56 -32.83545 151.93780 32487 ft 419 kts
2026-05-05 08:56 -32.80736 151.94673 32992 ft 415 kts
2026-05-05 08:56 -32.77984 151.95549 33424 ft 414 kts
2026-05-05 08:57 -32.75201 151.96438 33817 ft 414 kts
2026-05-05 08:57 -32.72422 151.97327 34192 ft 414 kts
2026-05-05 08:57 -32.69633 151.98218 34510 ft 414 kts
2026-05-05 08:57 -32.66851 151.99102 34820 ft 414 kts
2026-05-05 08:58 -32.64065 151.99987 35096 ft 415 kts
2026-05-05 08:58 -32.58444 152.01764 35175 ft 421 kts
2026-05-05 08:59 -32.52771 152.03565 35177 ft 422 kts
2026-05-05 08:59 -32.47097 152.05367 35175 ft 422 kts
2026-05-05 09:00 -32.41454 152.07147 35178 ft 421 kts
2026-05-05 09:00 -32.35797 152.08938 35179 ft 420 kts
2026-05-05 09:01 -32.30137 152.10728 35188 ft 421 kts
2026-05-05 09:01 -32.24481 152.12516 35190 ft 421 kts
2026-05-05 09:02 -32.18828 152.14294 35176 ft 420 kts
2026-05-05 09:02 -32.14133 152.15766 35191 ft 420 kts
2026-05-05 09:03 -32.07566 152.17830 35200 ft 419 kts
2026-05-05 09:03 -32.01937 152.19609 35199 ft 419 kts
2026-05-05 09:04 -31.97218 152.21080 35178 ft 418 kts
2026-05-05 09:04 -31.91593 152.22839 35193 ft 419 kts
2026-05-05 09:05 -31.85044 152.24891 35192 ft 418 kts
2026-05-05 09:05 -31.80366 152.26346 35197 ft 418 kts
2026-05-05 09:06 -31.74733 152.28095 35182 ft 419 kts
2026-05-05 09:06 -31.69089 152.29850 35178 ft 420 kts
2026-05-05 09:07 -31.63428 152.31615 35180 ft 420 kts
2026-05-05 09:07 -31.57766 152.33383 35186 ft 421 kts
2026-05-05 09:08 -31.52096 152.35137 35181 ft 422 kts
2026-05-05 09:08 -31.46441 152.36884 35178 ft 423 kts
2026-05-05 09:09 -31.40703 152.38662 35183 ft 424 kts
2026-05-05 09:09 -31.35032 152.40412 35187 ft 425 kts
2026-05-05 09:10 -31.29315 152.42188 35162 ft 426 kts
2026-05-05 09:10 -31.23559 152.43963 35162 ft 429 kts
2026-05-05 09:11 -31.17781 152.45735 35152 ft 429 kts
2026-05-05 09:11 -31.11988 152.47513 35166 ft 432 kts
2026-05-05 09:12 -31.06167 152.49299 35159 ft 434 kts
2026-05-05 09:12 -31.00323 152.51097 35162 ft 435 kts
2026-05-05 09:13 -30.94465 152.52892 35158 ft 435 kts
2026-05-05 09:13 -30.88600 152.54696 35165 ft 436 kts
2026-05-05 09:14 -30.82737 152.56484 35170 ft 436 kts
2026-05-05 09:14 -30.76882 152.58332 35191 ft 438 kts
2026-05-05 09:15 -30.71056 152.60455 35202 ft 439 kts
2026-05-05 09:15 -30.65279 152.62634 35204 ft 439 kts
2026-05-05 09:16 -30.59487 152.64771 35173 ft 433 kts
2026-05-05 09:16 -30.53761 152.66844 35180 ft 429 kts
2026-05-05 09:17 -30.48059 152.68889 35176 ft 429 kts
2026-05-05 09:17 -30.42357 152.70941 35181 ft 429 kts
2026-05-05 09:18 -30.36657 152.72996 35171 ft 428 kts
2026-05-05 09:18 -30.30957 152.75049 35176 ft 429 kts
2026-05-05 09:19 -30.25281 152.77089 35179 ft 430 kts
2026-05-05 09:19 -30.19566 152.79143 35181 ft 430 kts
2026-05-05 09:20 -30.13848 152.81194 35168 ft 429 kts
2026-05-05 09:20 -30.08145 152.83234 35171 ft 428 kts
2026-05-05 09:21 -30.02461 152.85273 35190 ft 427 kts
2026-05-05 09:21 -29.96791 152.87305 35187 ft 425 kts
2026-05-05 09:22 -29.91139 152.89324 35156 ft 425 kts
2026-05-05 09:22 -29.85532 152.91323 35167 ft 423 kts
2026-05-05 09:23 -29.79913 152.93320 35172 ft 422 kts
2026-05-05 09:23 -29.74296 152.95311 35171 ft 422 kts
2026-05-05 09:24 -29.68683 152.97305 35143 ft 422 kts
2026-05-05 09:24 -29.63084 152.99300 35160 ft 421 kts
2026-05-05 09:25 -29.57497 153.01282 35160 ft 420 kts
2026-05-05 09:25 -29.51913 153.03257 35163 ft 419 kts
2026-05-05 09:26 -29.46337 153.05229 35161 ft 419 kts
2026-05-05 09:26 -29.40771 153.07195 35152 ft 418 kts
2026-05-05 09:27 -29.35249 153.09140 35159 ft 417 kts
2026-05-05 09:27 -29.29707 153.11090 35161 ft 416 kts
2026-05-05 09:28 -29.24172 153.13039 35157 ft 416 kts
2026-05-05 09:28 -29.18643 153.14992 35135 ft 415 kts
2026-05-05 09:29 -29.13133 153.16931 35155 ft 413 kts
2026-05-05 09:29 -29.07641 153.18857 35159 ft 412 kts
2026-05-05 09:30 -29.02155 153.20775 35159 ft 412 kts
2026-05-05 09:30 -28.96707 153.22686 34514 ft 408 kts
2026-05-05 09:30 -28.93983 153.23640 33546 ft 413 kts
2026-05-05 09:31 -28.91228 153.24601 32801 ft 414 kts
2026-05-05 09:31 -28.88496 153.25556 31962 ft 418 kts
2026-05-05 09:31 -28.85675 153.26543 31273 ft 419 kts
2026-05-05 09:31 -28.82923 153.27507 30649 ft 419 kts
2026-05-05 09:32 -28.80140 153.28479 29985 ft 418 kts
2026-05-05 09:32 -28.77357 153.29450 29294 ft 417 kts
2026-05-05 09:32 -28.74590 153.30417 28658 ft 414 kts
2026-05-05 09:32 -28.71843 153.31373 28046 ft 412 kts
2026-05-05 09:33 -28.69111 153.32321 27460 ft 410 kts
2026-05-05 09:33 -28.66392 153.33265 26887 ft 407 kts
2026-05-05 09:33 -28.63686 153.34205 26341 ft 405 kts
2026-05-05 09:33 -28.60997 153.35142 25813 ft 403 kts
2026-05-05 09:34 -28.58320 153.36075 25312 ft 401 kts
2026-05-05 09:34 -28.55661 153.37001 24855 ft 399 kts
2026-05-05 09:34 -28.53015 153.37919 24405 ft 397 kts
2026-05-05 09:34 -28.50384 153.38830 23984 ft 395 kts
2026-05-05 09:35 -28.47760 153.39738 23524 ft 393 kts
2026-05-05 09:35 -28.42532 153.41552 22424 ft 392 kts 10°
2026-05-05 09:35 -28.39968 153.42444 22006 ft 388 kts 10°
2026-05-05 09:36 -28.37391 153.43337 21575 ft 385 kts 10°
2026-05-05 09:36 -28.34838 153.44219 21128 ft 382 kts 10°
2026-05-05 09:36 -28.32306 153.45095 20675 ft 379 kts 11°
2026-05-05 09:36 -28.29793 153.45965 20233 ft 376 kts 11°
2026-05-05 09:37 -28.27297 153.46826 19788 ft 373 kts 11°
2026-05-05 09:37 -28.24824 153.47675 19332 ft 370 kts 11°
2026-05-05 09:37 -28.22367 153.48519 18894 ft 367 kts 11°
2026-05-05 09:37 -28.19930 153.49357 18460 ft 364 kts 11°
2026-05-05 09:38 -28.17481 153.49845 17987 ft 352 kts 357°
2026-05-05 09:38 -28.15078 153.49586 17477 ft 344 kts 343°
2026-05-05 09:38 -28.12830 153.48723 16938 ft 340 kts 337°
2026-05-05 09:38 -28.10647 153.47798 16414 ft 340 kts 337°
2026-05-05 09:39 -28.08429 153.46867 15885 ft 339 kts 338°
2026-05-05 09:39 -28.06216 153.45943 15374 ft 338 kts 338°
2026-05-05 09:39 -28.04009 153.45025 14873 ft 337 kts 338°
2026-05-05 09:39 -28.01807 153.44111 14387 ft 337 kts 338°
2026-05-05 09:40 -27.99608 153.43198 13892 ft 336 kts 339°
2026-05-05 09:40 -27.97412 153.42287 13338 ft 336 kts 339°
2026-05-05 09:40 -27.95218 153.41374 12801 ft 335 kts 339°
2026-05-05 09:40 -27.93030 153.40460 12302 ft 335 kts 339°
2026-05-05 09:41 -27.90846 153.39549 11789 ft 334 kts 339°
2026-05-05 09:41 -27.88665 153.38640 11295 ft 334 kts 339°
2026-05-05 09:41 -27.86511 153.37743 11085 ft 324 kts 339°
2026-05-05 09:41 -27.84432 153.36877 10959 ft 313 kts 339°
2026-05-05 09:42 -27.82414 153.36040 10726 ft 307 kts 339°
2026-05-05 09:42 -27.80404 153.35208 10305 ft 309 kts 339°
2026-05-05 09:42 -27.78380 153.34369 9871 ft 310 kts 339°
2026-05-05 09:42 -27.76350 153.33524 9406 ft 311 kts 339°
2026-05-05 09:43 -27.74354 153.32570 8943 ft 312 kts 329°
2026-05-05 09:43 -27.72715 153.30988 8495 ft 311 kts 311°
2026-05-05 09:43 -27.71308 153.29177 8056 ft 311 kts 309°
2026-05-05 09:43 -27.69898 153.27316 7616 ft 312 kts 309°
2026-05-05 09:44 -27.68489 153.25453 7191 ft 312 kts 309°
2026-05-05 09:44 -27.67383 153.23412 7019 ft 299 kts 286°
2026-05-05 09:44 -27.67046 153.21179 7038 ft 281 kts 272°
2026-05-05 09:44 -27.66912 153.19039 7039 ft 266 kts 271°
2026-05-05 09:45 -27.66798 153.17007 7039 ft 253 kts 271°
2026-05-05 09:45 -27.66688 153.15034 7041 ft 251 kts 271°
2026-05-05 09:45 -27.66580 153.13071 7041 ft 251 kts 271°
2026-05-05 09:45 -27.66474 153.11103 7037 ft 251 kts 271°
2026-05-05 09:46 -27.66505 153.09140 7037 ft 249 kts 258°
2026-05-05 09:46 -27.66939 153.07263 7035 ft 246 kts 242°
2026-05-05 09:46 -27.67771 153.05578 7035 ft 245 kts 236°
2026-05-05 09:46 -27.68668 153.03961 6919 ft 247 kts 235°
2026-05-05 09:47 -27.69574 153.02321 6681 ft 245 kts 239°
2026-05-05 09:47 -27.69995 153.00475 6439 ft 247 kts 271°
2026-05-05 09:47 -27.69525 152.98611 6084 ft 254 kts 298°
2026-05-05 09:47 -27.68532 152.96928 5582 ft 262 kts 307°
2026-05-05 09:48 -27.67087 152.95641 5089 ft 272 kts 336°
2026-05-05 09:48 -27.65231 152.95269 4626 ft 271 kts
2026-05-05 09:48 -27.63503 152.95846 4526 ft 248 kts 26°
2026-05-05 09:48 -27.62066 152.96728 4516 ft 223 kts 33°
2026-05-05 09:49 -27.60802 152.97608 4526 ft 208 kts 34°
2026-05-05 09:49 -27.59576 152.98475 4336 ft 207 kts 34°
2026-05-05 09:49 -27.58376 152.99323 4054 ft 198 kts 34°
2026-05-05 09:49 -27.57266 153.00072 4042 ft 171 kts 30°
2026-05-05 09:50 -27.56266 153.00621 4024 ft 153 kts 27°
2026-05-05 09:50 -27.55291 153.01119 3850 ft 155 kts 26°
2026-05-05 09:50 -27.54638 153.01424 3653 ft 151 kts 24°
2026-05-05 09:50 -27.53364 153.02032 3261 ft 149 kts 27°
2026-05-05 09:51 -27.52430 153.02519 2941 ft 147 kts 27°
2026-05-05 09:51 -27.51522 153.03027 2748 ft 145 kts 29°
2026-05-05 09:51 -27.50920 153.03393 2635 ft 145 kts 31°
2026-05-05 09:51 -27.49753 153.04107 2502 ft 144 kts 29°
2026-05-05 09:52 -27.48864 153.04624 2380 ft 144 kts 28°
2026-05-05 09:52 -27.48268 153.04953 2274 ft 144 kts 27°
2026-05-05 09:52 -27.47364 153.05445 2098 ft 145 kts 27°
2026-05-05 09:52 -27.46452 153.05936 1839 ft 144 kts 27°
2026-05-05 09:53 -27.45556 153.06427 1601 ft 143 kts 29°
2026-05-05 09:53 -27.44687 153.06966 1356 ft 141 kts 31°
2026-05-05 09:53 -27.43828 153.07490 1145 ft 140 kts 28°
2026-05-05 09:53 -27.42675 153.08139 914 ft 140 kts 28°
2026-05-05 09:54 -27.41816 153.08648 750 ft 139 kts 30°
2026-05-05 09:54 -27.41245 153.09006 665 ft 139 kts 30°
2026-05-05 09:54 -27.40381 153.09503 536 ft 140 kts 26°
2026-05-05 09:54 -27.39508 153.09987 334 ft 139 kts 27°
2026-05-05 09:55 -27.38648 153.10490 146 ft 139 kts 26°
2026-05-05 09:55 -27.37795 153.10980 23 ft 138 kts 27°
2026-05-05 09:55 -27.36995 153.11432 18 ft 109 kts 27°
2026-05-05 09:55 -27.36459 153.11742 18 ft 53 kts 31°
2026-05-05 09:56 -27.36289 153.11980 20 ft 12 kts 62°
2026-05-05 09:56 -27.36276 153.12005 19 ft 0 kts 60°
2026-05-05 09:57 -27.36276 153.12007 20 ft 1 kts 61°
2026-05-05 09:57 -27.36267 153.12031 18 ft 4 kts 73°
2026-05-05 09:57 -27.36266 153.12101 18 ft 14 kts 112°
2026-05-05 09:58 -27.36355 153.12121 18 ft 16 kts 204°
2026-05-05 09:58 -27.36462 153.12061 17 ft 19 kts 207°
2026-05-05 09:58 -27.36586 153.11990 19 ft 21 kts 207°
2026-05-05 09:58 -27.36725 153.11909 17 ft 24 kts 207°
2026-05-05 09:59 -27.36878 153.11820 18 ft 26 kts 207°
2026-05-05 09:59 -27.37048 153.11725 19 ft 28 kts 206°
2026-05-05 09:59 -27.37206 153.11636 19 ft 20 kts 207°
2026-05-05 09:59 -27.37333 153.11639 18 ft 20 kts 134°
2026-05-05 10:00 -27.37405 153.11788 20 ft 23 kts 117°
2026-05-05 10:00 -27.37483 153.11957 18 ft 26 kts 116°
2026-05-05 10:00 -27.37567 153.12144 18 ft 28 kts 117°
2026-05-05 10:00 -27.37659 153.12342 19 ft 29 kts 117°
2026-05-05 10:01 -27.37754 153.12550 18 ft 28 kts 116°
2026-05-05 10:01 -27.37837 153.12734 19 ft 21 kts 117°
2026-05-05 10:01 -27.37906 153.12809 18 ft 13 kts 184°
2026-05-05 10:01 -27.38000 153.12764 19 ft 16 kts 204°
2026-05-05 10:02 -27.38105 153.12697 18 ft 19 kts 210°
2026-05-05 10:02 -27.38232 153.12628 19 ft 22 kts 206°
2026-05-05 10:02 -27.38302 153.12528 18 ft 18 kts 287°
2026-05-05 10:02 -27.38269 153.12396 18 ft 17 kts 268°
2026-05-05 10:03 -27.38271 153.12294 18 ft 9 kts 259°
2026-05-05 10:03 -27.38279 153.12266 20 ft 0 kts 250°